| time (UTC) | temp F | wind direction | speed knots | gust knots | rain 1hr in | rain 24hr in | rain mn in | humidity % | barometer mb |
| 20260505072636 | 67 | 172 | 0.0 | 1.7 | 0.00 | 0.00 | 0.00 | 58 | 1007.2 |
| 20260505072133 | 67 | 201 | 0.0 | 1.7 | 0.00 | 0.00 | 0.00 | 58 | 1007.0 |
| 20260505071628 | 67 | 152 | 1.7 | 2.6 | 0.00 | 0.00 | 0.00 | 57 | 1007.3 |
| 20260505071126 | 67 | 188 | 1.7 | 3.5 | 0.00 | 0.00 | 0.00 | 57 | 1006.8 |
| 20260505070623 | 67 | 168 | 1.7 | 2.6 | 0.00 | 0.00 | 0.00 | 57 | 1006.9 |
| 20260505070119 | 67 | 183 | 1.7 | 5.2 | 0.00 | 0.00 | 0.00 | 56 | 1006.9 |
| 20260505065616 | 67 | 206 | 1.7 | 2.6 | 0.00 | 0.00 | 0.00 | 57 | 1006.8 |
| 20260505065112 | 67 | 213 | 3.5 | 6.1 | 0.00 | 0.00 | 0.00 | 56 | 1006.9 |
| 20260505064609 | 68 | 208 | 0.9 | 6.1 | 0.00 | 0.00 | 0.00 | 56 | 1006.7 |
| 20260505064108 | 68 | 178 | 1.7 | 3.5 | 0.00 | 0.00 | 0.00 | 56 | 1006.7 |
| 20260505063605 | 68 | 164 | 4.3 | 6.1 | 0.00 | 0.00 | 0.00 | 56 | 1006.6 |
| 20260505063100 | 68 | 177 | 5.2 | 6.1 | 0.00 | 0.00 | 0.00 | 55 | 1006.7 |
| 20260505062557 | 68 | 221 | 1.7 | 6.1 | 0.00 | 0.00 | 0.00 | 55 | 1006.9 |
| 20260505062054 | 68 | 284 | 0.9 | 2.6 | 0.00 | 0.00 | 0.00 | 55 | 1006.6 |
| 20260505061552 | 68 | 174 | 4.3 | 7.8 | 0.00 | 0.00 | 0.00 | 55 | 1006.6 |
| 20260505061050 | 68 | 181 | 1.7 | 5.2 | 0.00 | 0.00 | 0.00 | 55 | 1006.7 |
| 20260505060547 | 68 | 187 | 3.5 | 6.1 | 0.00 | 0.00 | 0.00 | 55 | 1006.5 |
| 20260505060044 | 68 | 191 | 5.2 | 7.0 | 0.00 | 0.00 | 0.00 | 54 | 1006.5 |
| 20260505055539 | 68 | 201 | 0.9 | 3.5 | 0.00 | 0.00 | 0.00 | 55 | 1006.5 |
| 20260505055036 | 68 | 190 | 3.5 | 6.1 | 0.00 | 0.00 | 0.00 | 55 | 1006.2 |
| 20260505054533 | 69 | 188 | 1.7 | 3.5 | 0.00 | 0.00 | 0.00 | 54 | 1006.2 |
| 20260505054031 | 69 | 181 | 2.6 | 5.2 | 0.00 | 0.00 | 0.00 | 54 | 1006.2 |
| 20260505053528 | 69 | 211 | 1.7 | 7.0 | 0.00 | 0.00 | 0.00 | 53 | 1006.1 |
| 20260505053025 | 69 | 147 | 3.5 | 7.8 | 0.00 | 0.00 | 0.00 | 53 | 1006.0 |
| 20260505052522 | 69 | 177 | 3.5 | 5.2 | 0.00 | 0.00 | 0.00 | 53 | 1005.9 |
| 20260505052019 | 70 | 194 | 2.6 | 9.6 | 0.00 | 0.00 | 0.00 | 52 | 1006.0 |
| 20260505051516 | 69 | 180 | 3.5 | 7.0 | 0.00 | 0.00 | 0.00 | 52 | 1005.9 |
| 20260505051014 | 69 | 170 | 3.5 | 5.2 | 0.00 | 0.00 | 0.00 | 53 | 1006.2 |
| 20260505050512 | 69 | 186 | 3.5 | 3.5 | 0.00 | 0.00 | 0.00 | 53 | 1006.1 |
| 20260505041439 | 69 | 177 | 3.5 | 8.7 | 0.00 | 0.00 | 0.00 | 54 | 1006.5 |
| 20260505040937 | 69 | 154 | 2.6 | 3.5 | 0.00 | 0.00 | 0.00 | 55 | 1006.7 |
| 20260505040434 | 70 | 179 | 0.9 | 6.1 | 0.00 | 0.00 | 0.00 | 55 | 1006.5 |
| 20260505035931 | 70 | 158 | 3.5 | 7.0 | 0.00 | 0.00 | 0.00 | 55 | 1006.7 |
| 20260505035427 | 70 | 170 | 3.5 | 5.2 | 0.00 | 0.00 | 0.00 | 55 | 1006.7 |
| 20260505034924 | 70 | 174 | 3.5 | 5.2 | 0.00 | 0.00 | 0.00 | 55 | 1006.8 |
| 20260505034420 | 70 | 190 | 1.7 | 7.8 | 0.00 | 0.00 | 0.00 | 55 | 1006.8 |
| 20260505033917 | 70 | 200 | 0.9 | 3.5 | 0.00 | 0.00 | 0.00 | 55 | 1006.9 |
| 20260505033414 | 69 | 205 | 0.9 | 3.5 | 0.00 | 0.00 | 0.00 | 56 | 1006.7 |
| 20260505032913 | 69 | 174 | 2.6 | 3.5 | 0.00 | 0.00 | 0.00 | 56 | 1006.9 |
| 20260505032409 | 70 | 252 | 0.9 | 2.6 | 0.00 | 0.00 | 0.00 | 56 | 1006.9 |
| 20260505031906 | 69 | 181 | 1.7 | 5.2 | 0.00 | 0.00 | 0.00 | 56 | 1006.7 |
| 20260505031403 | 69 | 138 | 3.5 | 3.5 | 0.00 | 0.00 | 0.00 | 56 | 1006.8 |
| 20260505030900 | 70 | 194 | 0.9 | 3.5 | 0.00 | 0.00 | 0.00 | 56 | 1006.8 |
| 20260505030355 | 69 | 187 | 1.7 | 5.2 | 0.00 | 0.00 | 0.00 | 56 | 1006.7 |
| 20260505025851 | 69 | 160 | 0.9 | 3.5 | 0.00 | 0.00 | 0.00 | 56 | 1006.6 |
| 20260505025349 | 69 | 165 | 0.9 | 3.5 | 0.00 | 0.00 | 0.00 | 56 | 1006.6 |
| 20260505024848 | 69 | 207 | 1.7 | 2.6 | 0.00 | 0.00 | 0.00 | 56 | 1006.5 |
| 20260505024345 | 70 | 195 | 0.9 | 2.6 | 0.00 | 0.00 | 0.00 | 56 | 1006.4 |
| 20260505023842 | 69 | 178 | 1.7 | 5.2 | 0.00 | 0.00 | 0.00 | 57 | 1006.3 |
| 20260505023339 | 69 | 192 | 1.7 | 1.7 | 0.00 | 0.00 | 0.00 | 57 | 1006.2 |
| 20260505022836 | 69 | 152 | 1.7 | 3.5 | 0.00 | 0.00 | 0.00 | 58 | 1006.2 |
| 20260505022333 | 69 | 160 | 1.7 | 5.2 | 0.00 | 0.00 | 0.00 | 59 | 1006.2 |
| 20260505021830 | 69 | 176 | 1.7 | 2.6 | 0.00 | 0.00 | 0.00 | 58 | 1006.1 |
| 20260505021326 | 69 | 171 | 0.9 | 1.7 | 0.00 | 0.00 | 0.00 | 59 | 1006.1 |
| 20260505020822 | 68 | 170 | 1.7 | 3.5 | 0.00 | 0.00 | 0.00 | 59 | 1006.0 |
| 20260505020318 | 68 | 145 | 0.0 | 1.7 | 0.00 | 0.00 | 0.00 | 60 | 1005.8 |
| 20260505015815 | 68 | 188 | 1.7 | 2.6 | 0.00 | 0.00 | 0.00 | 60 | 1005.7 |
| 20260505015312 | 68 | 172 | 0.0 | 0.0 | 0.00 | 0.00 | 0.00 | 60 | 1005.7 |
| 20260505014810 | 69 | 172 | 0.9 | 0.9 | 0.00 | 0.00 | 0.00 | 59 | 1005.6 |
| 20260505014307 | 69 | 160 | 0.9 | 1.7 | 0.00 | 0.00 | 0.00 | 58 | 1005.8 |
| 20260505013803 | 69 | 168 | 0.9 | 1.7 | 0.00 | 0.00 | 0.00 | 58 | 1005.8 |
| 20260505013300 | 69 | 178 | 0.9 | 1.7 | 0.00 | 0.00 | 0.00 | 58 | 1005.6 |
| 20260505012759 | 69 | 145 | 0.9 | 2.6 | 0.00 | 0.00 | 0.00 | 57 | 1005.5 |
| 20260505012256 | 70 | 200 | 1.7 | 2.6 | 0.00 | 0.00 | 0.00 | 57 | 1005.6 |
| 20260505011751 | 70 | 180 | 0.0 | 0.9 | 0.00 | 0.00 | 0.00 | 57 | 1005.6 |
| 20260505011248 | 70 | 164 | 0.9 | 2.6 | 0.00 | 0.00 | 0.00 | 56 | 1005.5 |
| 20260505010744 | 70 | 175 | 1.7 | 1.7 | 0.00 | 0.00 | 0.00 | 56 | 1005.4 |
| 20260505010241 | 70 | 168 | 1.7 | 2.6 | 0.00 | 0.00 | 0.00 | 55 | 1005.5 |
| 20260505005737 | 71 | 175 | 0.0 | 0.0 | 0.00 | 0.00 | 0.00 | 55 | 1005.6 |
| 20260505005234 | 71 | 139 | 1.7 | 1.7 | 0.00 | 0.00 | 0.00 | 54 | 1005.5 |
| 20260505004731 | 71 | 158 | 1.7 | 1.7 | 0.00 | 0.00 | 0.00 | 54 | 1005.4 |
| 20260505004227 | 72 | 153 | 1.7 | 1.7 | 0.00 | 0.00 | 0.00 | 52 | 1005.6 |
| 20260505003725 | 72 | 160 | 0.0 | 2.6 | 0.00 | 0.00 | 0.00 | 52 | 1005.7 |
| 20260505003223 | 72 | 173 | 1.7 | 2.6 | 0.00 | 0.00 | 0.00 | 51 | 1005.5 |
| 20260505002718 | 72 | 173 | 1.7 | 1.7 | 0.00 | 0.00 | 0.00 | 52 | 1005.4 |
| 20260505002216 | 72 | 179 | 3.5 | 3.5 | 0.00 | 0.00 | 0.00 | 51 | 1005.3 |
| 20260505001714 | 73 | 174 | 0.9 | 2.6 | 0.00 | 0.00 | 0.00 | 51 | 1005.5 |
| 20260505001211 | 73 | 196 | 2.6 | 5.2 | 0.00 | 0.00 | 0.00 | 50 | 1005.7 |
| 20260505000708 | 73 | 184 | 0.9 | 6.1 | 0.00 | 0.00 | 0.00 | 50 | 1005.6 |
| 20260505000206 | 73 | 189 | 1.7 | 1.7 | 0.00 | 0.00 | 0.00 | 49 | 1005.6 |
| 20260504235702 | 74 | 185 | 0.9 | 7.0 | 0.00 | 0.00 | 0.00 | 48 | 1005.7 |
| 20260504235158 | 74 | 143 | 2.6 | 5.2 | 0.00 | 0.00 | 0.00 | 48 | 1005.7 |
| 20260504234656 | 74 | 218 | 1.7 | 2.6 | 0.00 | 0.00 | 0.00 | 47 | 1005.7 |
| 20260504234153 | 74 | 186 | 3.5 | 5.2 | 0.00 | 0.00 | 0.00 | 46 | 1005.8 |
| 20260504233648 | 74 | 196 | 0.0 | 1.7 | 0.00 | 0.00 | 0.00 | 46 | 1006.1 |
| 20260504233144 | 74 | 141 | 0.9 | 5.2 | 0.00 | 0.00 | 0.00 | 45 | 1006.0 |
| 20260504232643 | 74 | 199 | 0.9 | 3.5 | 0.00 | 0.00 | 0.00 | 45 | 1006.1 |
| 20260504232139 | 75 | 169 | 3.5 | 5.2 | 0.00 | 0.00 | 0.00 | 44 | 1006.1 |
| 20260504231636 | 75 | 189 | 2.6 | 9.6 | 0.00 | 0.00 | 0.00 | 44 | 1006.0 |
| 20260504231132 | 76 | 163 | 2.6 | 6.1 | 0.00 | 0.00 | 0.00 | 43 | 1006.2 |
| 20260504230628 | 76 | 137 | 6.1 | 8.7 | 0.00 | 0.00 | 0.00 | 43 | 1006.0 |
| 20260504230127 | 76 | 212 | 2.6 | 7.0 | 0.00 | 0.00 | 0.00 | 43 | 1006.1 |
| 20260504225625 | 76 | 182 | 2.6 | 13.0 | 0.00 | 0.00 | 0.00 | 43 | 1006.1 |
| 20260504225121 | 76 | 208 | 7.0 | 9.6 | 0.00 | 0.00 | 0.00 | 44 | 1006.2 |
| 20260504224618 | 76 | 163 | 4.3 | 7.0 | 0.00 | 0.00 | 0.00 | 45 | 1006.1 |
| 20260504224115 | 75 | 197 | 2.6 | 5.2 | 0.00 | 0.00 | 0.00 | 48 | 1006.2 |
| 20260504223612 | 75 | 171 | 4.3 | 6.1 | 0.00 | 0.00 | 0.00 | 49 | 1006.3 |
| 20260504223108 | 75 | 121 | 2.6 | 3.5 | 0.00 | 0.00 | 0.00 | 51 | 1006.2 |
| 20260504222605 | 75 | 155 | 3.5 | 5.2 | 0.00 | 0.00 | 0.00 | 49 | 1006.3 |
| 20260504222102 | 75 | 208 | 1.7 | 5.2 | 0.00 | 0.00 | 0.00 | 50 | 1006.4 |
| 20260504221559 | 75 | 195 | 1.7 | 1.7 | 0.00 | 0.00 | 0.00 | 49 | 1006.6 |
| 20260504221055 | 75 | 176 | 0.0 | 2.6 | 0.00 | 0.00 | 0.00 | 49 | 1006.7 |
| 20260504220552 | 74 | 153 | 1.7 | 2.6 | 0.00 | 0.00 | 0.00 | 50 | 1006.5 |
| 20260504220049 | 74 | 199 | 1.7 | 6.1 | 0.00 | 0.00 | 0.00 | 48 | 1006.6 |
| 20260504215546 | 74 | 199 | 1.7 | 2.6 | 0.00 | 0.00 | 0.00 | 49 | 1006.5 |
| 20260504215043 | 74 | 188 | 1.7 | 2.6 | 0.00 | 0.00 | 0.00 | 48 | 1006.5 |
| 20260504214539 | 74 | 152 | 3.5 | 6.1 | 0.00 | 0.00 | 0.00 | 49 | 1006.7 |
| 20260504214036 | 74 | 213 | 0.0 | 2.6 | 0.00 | 0.00 | 0.00 | 47 | 1006.9 |
| 20260504213532 | 75 | 214 | 1.7 | 2.6 | 0.00 | 0.00 | 0.00 | 47 | 1007.0 |
| 20260504213030 | 75 | 210 | 2.6 | 3.5 | 0.00 | 0.00 | 0.00 | 46 | 1007.2 |
| 20260504212525 | 75 | 293 | 0.9 | 0.9 | 0.00 | 0.00 | 0.00 | 48 | 1007.2 |
| 20260504212023 | 76 | 187 | 2.6 | 5.2 | 0.00 | 0.00 | 0.00 | 46 | 1007.3 |
| 20260504211520 | 76 | 315 | 1.7 | 1.7 | 0.00 | 0.00 | 0.00 | 47 | 1007.4 |
| 20260504211017 | 75 | 56 | 0.0 | 1.7 | 0.00 | 0.00 | 0.00 | 46 | 1007.5 |
| 20260504210514 | 75 | 189 | 2.6 | 6.1 | 0.00 | 0.00 | 0.00 | 48 | 1007.4 |
| 20260504210010 | 75 | 210 | 1.7 | 5.2 | 0.00 | 0.00 | 0.00 | 48 | 1007.6 |
| 20260504205508 | 76 | 317 | 0.9 | 3.5 | 0.00 | 0.00 | 0.00 | 50 | 1007.6 |
| 20260504205006 | 76 | 216 | 2.6 | 2.6 | 0.00 | 0.00 | 0.00 | 48 | 1007.6 |
| 20260504204504 | 75 | 217 | 1.7 | 3.5 | 0.00 | 0.00 | 0.00 | 49 | 1007.7 |
| 20260504204003 | 75 | 196 | 2.6 | 7.0 | 0.00 | 0.00 | 0.00 | 49 | 1007.9 |
| 20260504203500 | 76 | 273 | 1.7 | 3.5 | 0.00 | 0.00 | 0.00 | 48 | 1007.9 |
| 20260504202956 | 76 | 188 | 3.5 | 5.2 | 0.00 | 0.00 | 0.00 | 46 | 1007.9 |
| 20260504202452 | 77 | 235 | 0.0 | 2.6 | 0.00 | 0.00 | 0.00 | 48 | 1008.0 |
| 20260504201949 | 74 | 221 | 1.7 | 6.1 | 0.00 | 0.00 | 0.00 | 50 | 1008.0 |
| 20260504201447 | 74 | 232 | 0.9 | 1.7 | 0.00 | 0.00 | 0.00 | 50 | 1008.4 |
| 20260504200944 | 74 | 224 | 0.0 | 5.2 | 0.00 | 0.00 | 0.00 | 51 | 1008.1 |
| 20260504200441 | 75 | 169 | 0.9 | 1.7 | 0.00 | 0.00 | 0.00 | 50 | 1008.2 |
| 20260504195937 | 75 | 190 | 1.7 | 7.0 | 0.00 | 0.00 | 0.00 | 50 | 1008.3 |
| 20260504195433 | 75 | 159 | 1.7 | 6.1 | 0.00 | 0.00 | 0.00 | 50 | 1008.5 |
| 20260504194930 | 74 | 156 | 3.5 | 6.1 | 0.00 | 0.00 | 0.00 | 51 | 1008.4 |
| 20260504194426 | 75 | 141 | 6.1 | 7.8 | 0.00 | 0.00 | 0.00 | 50 | 1008.3 |
| 20260504193922 | 74 | 287 | 2.6 | 2.6 | 0.00 | 0.00 | 0.00 | 52 | 1008.6 |
| 20260504193420 | 73 | 292 | 0.9 | 2.6 | 0.00 | 0.00 | 0.00 | 54 | 1008.5 |
| 20260504192918 | 73 | 152 | 3.5 | 6.1 | 0.00 | 0.00 | 0.00 | 56 | 1008.7 |
| 20260504192415 | 72 | 288 | 0.0 | 0.9 | 0.00 | 0.00 | 0.00 | 59 | 1009.0 |
| 20260504191914 | 71 | 216 | 0.9 | 1.7 | 0.00 | 0.00 | 0.00 | 59 | 1009.0 |
| 20260504191411 | 70 | 191 | 1.7 | 1.7 | 0.00 | 0.00 | 0.00 | 60 | 1008.9 |
| 20260504190906 | 69 | 349 | 0.0 | 0.9 | 0.00 | 0.00 | 0.00 | 62 | 1009.1 |
| 20260504190403 | 69 | 294 | 1.7 | 2.6 | 0.00 | 0.00 | 0.00 | 62 | 1009.5 |
| 20260504185859 | 68 | 179 | 0.9 | 1.7 | 0.00 | 0.00 | 0.00 | 64 | 1009.2 |
| 20260504185357 | 68 | 164 | 0.9 | 1.7 | 0.00 | 0.00 | 0.00 | 64 | 1009.1 |
| 20260504184852 | 68 | 183 | 0.0 | 0.9 | 0.00 | 0.00 | 0.00 | 64 | 1009.4 |
| 20260504184348 | 68 | 204 | 1.7 | 3.5 | 0.00 | 0.00 | 0.00 | 62 | 1009.5 |
| 20260504183844 | 69 | 286 | 0.0 | 2.6 | 0.00 | 0.00 | 0.00 | 60 | 1009.5 |
| 20260504183342 | 69 | 217 | 0.9 | 1.7 | 0.00 | 0.00 | 0.00 | 61 | 1009.4 |
| 20260504182839 | 69 | 178 | 1.7 | 2.6 | 0.00 | 0.00 | 0.00 | 60 | 1009.4 |
| 20260504182337 | 69 | 276 | 2.6 | 6.1 | 0.00 | 0.00 | 0.00 | 59 | 1009.5 |
| 20260504181833 | 69 | 222 | 2.6 | 7.0 | 0.00 | 0.00 | 0.00 | 59 | 1009.3 |
| 20260504181331 | 69 | 159 | 6.1 | 7.8 | 0.00 | 0.00 | 0.00 | 58 | 1009.2 |
| 20260504180830 | 70 | 188 | 1.7 | 3.5 | 0.00 | 0.00 | 0.00 | 58 | 1009.0 |
| 20260504180328 | 70 | 312 | 2.6 | 5.2 | 0.00 | 0.00 | 0.00 | 56 | 1009.0 |
| 20260504175826 | 71 | 185 | 3.5 | 6.1 | 0.00 | 0.00 | 0.00 | 56 | 1009.0 |
| 20260504175322 | 71 | 141 | 1.7 | 6.1 | 0.00 | 0.00 | 0.00 | 58 | 1008.5 |
| 20260504174821 | 71 | 174 | 3.5 | 5.2 | 0.00 | 0.00 | 0.00 | 57 | 1008.4 |
| 20260504174318 | 70 | 199 | 3.5 | 9.6 | 0.00 | 0.00 | 0.00 | 56 | 1008.4 |
| 20260504173814 | 70 | 178 | 6.1 | 8.7 | 0.00 | 0.00 | 0.00 | 56 | 1008.2 |
| 20260504173311 | 70 | 177 | 2.6 | 5.2 | 0.00 | 0.00 | 0.00 | 57 | 1008.6 |
| 20260504172808 | 70 | 166 | 2.6 | 5.2 | 0.00 | 0.00 | 0.00 | 57 | 1008.5 |
| 20260504172305 | 70 | 169 | 3.5 | 7.0 | 0.00 | 0.00 | 0.00 | 57 | 1008.7 |
| 20260504171800 | 70 | 185 | 3.5 | 6.1 | 0.00 | 0.00 | 0.00 | 61 | 1008.6 |
| 20260504171258 | 70 | 205 | 1.7 | 3.5 | 0.00 | 0.00 | 0.00 | 58 | 1008.8 |
| 20260504170755 | 69 | 214 | 1.7 | 2.6 | 0.00 | 0.00 | 0.00 | 60 | 1008.6 |
| 20260504170252 | 68 | 166 | 4.3 | 7.0 | 0.00 | 0.00 | 0.00 | 60 | 1008.4 |
| 20260504160210 | 66 | 196 | 1.7 | 1.7 | 0.00 | 0.00 | 0.00 | 62 | 1009.5 |
| 20260504151138 | 64 | 184 | 0.9 | 6.1 | 0.00 | 0.00 | 0.00 | 63 | 1009.5 |
| 20260504150636 | 63 | 204 | 0.0 | 2.6 | 0.00 | 0.00 | 0.00 | 63 | 1009.6 |
| 20260504150132 | 63 | 162 | 1.7 | 2.6 | 0.00 | 0.00 | 0.00 | 64 | 1009.6 |
| 20260504141101 | 61 | 173 | 2.6 | 5.2 | 0.00 | 0.00 | 0.00 | 64 | 1009.7 |
| 20260504140557 | 61 | 178 | 0.9 | 6.1 | 0.00 | 0.00 | 0.00 | 65 | 1009.7 |
| 20260504130522 | 58 | 196 | 2.6 | 3.5 | 0.00 | 0.00 | 0.00 | 69 | 1009.7 |
| 20260504110409 | 55 | 211 | 1.7 | 3.5 | 0.00 | 0.00 | 0.00 | 64 | 1009.9 |
| 20260504100331 | 53 | 168 | 0.0 | 0.9 | 0.00 | 0.00 | 0.00 | 68 | 1010.2 |
| 20260504081725 | 54 | 176 | 0.9 | 2.6 | 0.00 | 0.00 | 0.00 | 60 | 1010.9 |
| 20260504081221 | 55 | 164 | 0.9 | 1.7 | 0.00 | 0.00 | 0.00 | 59 | 1010.6 |
| 20260504080718 | 55 | 181 | 2.6 | 3.5 | 0.00 | 0.00 | 0.00 | 59 | 1011.0 |
| 20260504080214 | 55 | 159 | 1.7 | 3.5 | 0.00 | 0.00 | 0.00 | 60 | 1010.9 |